Seward, AK

2:28 PM AKDT on March 28, 2017 (GMT -0800)
Seward

Weather History for PAWD - March, 2013

Change the Weather History Date:

Tuesday, March 5, 2013

  Actual Average Record
Temperature  
Mean Temperature 34 °F -  
Max Temperature 39 °F 34 °F 47 °F (1993)
Min Temperature 28 °F 24 °F -4 °F (1971)
Degree Days  
Heating Degree Days 32    
Moisture  
Dew Point 31 °F    
Average Humidity 86    
Maximum Humidity 100    
Minimum Humidity 73    
Precipitation  
Precipitation 0.00 in - - ()
Sea Level Pressure  
Sea Level Pressure 30.11 in    
Wind  
Wind Speed 2 mph (South)    
Max Wind Speed 12 mph    
Max Gust Speed -    
Visibility 10 miles    
Events      
Averages and records for this station are not official NWS values.
T = Trace of Precipitation, MM = Missing Value Source: NWS Daily Summary

Daily Weather History Graph

Daily Weather History Graph

Search for Another Location

Airport or City:

Trip Planner

Search our weather history database for the weather conditions in past years. The results will help you decide how hot, cold, wet, or windy it might be!

Date:

Astronomy

Mar. 05, 2013 Rise Set
Actual Time 7:43 AM AKST 6:36 PM AKST
Civil Twilight 7:01 AM AKST 7:18 PM AKST
Nautical Twilight 6:13 AM AKST 8:06 PM AKST
Astronomical Twilight 5:23 AM AKST 8:56 PM AKST
Moon 4:18 AM AKST (3/5) 11:11 AM AKST (3/5)
Length of Visible Light 12h 16m
Length of Day
10h 53m
Last Quarter, 39% of the Moon is Illuminated
Mar 5
Last Quarter
Mar 11
New
Mar 19
First Quarter
Mar 27
Full
Apr 2
Last Quarter

Hourly Weather History & Observations

Time (AKST) Temp. Windchill Dew Point Humidity Pressure Visibility Wind Dir Wind Speed Gust Speed Precip Events Conditions
12:53 AM 34.0 °F - 32.0 °F 92% 30.32 in 10.0 mi Calm Calm - N/A   Overcast
1:53 AM 37.0 °F - 35.1 °F 93% 30.30 in 10.0 mi Calm Calm - N/A   Overcast
2:45 AM 35.6 °F 31.7 °F 33.8 °F 93% 30.29 in 10.0 mi ESE 4.6 mph - N/A   Overcast
3:53 AM 35.1 °F - 33.1 °F 92% 30.27 in 10.0 mi Calm Calm - N/A   Overcast
4:53 AM 34.0 °F - 32.0 °F 92% 30.25 in 10.0 mi Calm Calm - N/A   Mostly Cloudy
5:09 AM 32.0 °F - 30.2 °F 93% 30.25 in 10.0 mi Calm Calm - N/A   Overcast
5:23 AM 32.0 °F - 30.2 °F 93% 30.24 in 10.0 mi Calm Calm - N/A   Overcast
5:53 AM 34.0 °F 31.0 °F 33.1 °F 96% 30.24 in 10.0 mi NW 3.5 mph - N/A   Overcast
6:41 AM 33.8 °F 30.8 °F 33.8 °F 100% 30.22 in 10.0 mi NNW 3.5 mph - N/A   Overcast
6:53 AM 34.0 °F - 33.1 °F 96% 30.22 in 10.0 mi Calm Calm - N/A   Overcast
7:53 AM 34.0 °F - 33.1 °F 96% 30.21 in 10.0 mi Calm Calm - N/A   Overcast
8:37 AM 35.6 °F - 33.8 °F 93% 30.19 in 10.0 mi Calm Calm - N/A   Overcast
8:53 AM 37.0 °F - 34.0 °F 89% 30.19 in 10.0 mi Calm Calm - N/A   Overcast
9:53 AM 37.0 °F - 33.1 °F 86% 30.17 in 10.0 mi Calm Calm - N/A   Overcast
10:53 AM 37.9 °F - 33.1 °F 83% 30.16 in 10.0 mi Calm Calm - N/A   Mostly Cloudy
11:33 AM 37.4 °F - 32.0 °F 81% 30.15 in 10.0 mi Calm Calm - N/A   Scattered Clouds
11:53 AM 39.0 °F - 30.9 °F 73% 30.14 in 10.0 mi Calm Calm - N/A   Clear
12:28 PM 37.4 °F 34.9 °F 30.2 °F 75% 30.13 in 10.0 mi SE 3.5 mph - N/A   Mostly Cloudy
12:53 PM 37.9 °F 34.4 °F 32.0 °F 79% 30.13 in 10.0 mi SSE 4.6 mph - N/A   Overcast
1:38 PM 37.4 °F 32.8 °F 32.0 °F 81% 30.11 in 10.0 mi South 5.8 mph - N/A   Scattered Clouds
1:53 PM 37.9 °F 32.7 °F 33.1 °F 83% 30.11 in 10.0 mi SSW 6.9 mph - N/A   Scattered Clouds
2:03 PM 37.4 °F 32.1 °F 33.8 °F 87% 30.10 in 10.0 mi South 6.9 mph - N/A   Mostly Cloudy
2:53 PM 37.9 °F 31.5 °F 30.9 °F 76% 30.09 in 10.0 mi SSE 9.2 mph - N/A   Overcast
3:23 PM 37.4 °F 31.4 °F 30.2 °F 75% 30.08 in 10.0 mi South 8.1 mph - N/A   Scattered Clouds
3:53 PM 37.9 °F 32.7 °F 32.0 °F 79% 30.07 in 10.0 mi South 6.9 mph - N/A   Clear
4:53 PM 37.9 °F 33.5 °F 30.0 °F 73% 30.06 in 10.0 mi South 5.8 mph - N/A   Mostly Cloudy
5:25 PM 37.4 °F 30.3 °F 30.2 °F 75% 30.05 in 10.0 mi South 10.4 mph - N/A   Scattered Clouds
5:36 PM 37.4 °F 29.8 °F 30.2 °F 75% 30.05 in 10.0 mi South 11.5 mph - N/A   Mostly Cloudy
5:53 PM 37.0 °F 30.4 °F 30.0 °F 76% 30.05 in 10.0 mi SSW 9.2 mph - N/A   Overcast
6:25 PM 35.6 °F - 28.4 °F 75% 30.04 in 10.0 mi Calm Calm - N/A   Overcast
6:53 PM 36.0 °F - 28.9 °F 76% 30.04 in 10.0 mi Calm Calm - N/A   Scattered Clouds
7:34 PM 35.6 °F - 28.4 °F 75% 30.03 in 10.0 mi Calm Calm - N/A   Mostly Cloudy
7:45 PM 33.8 °F - 28.4 °F 81% 30.03 in 10.0 mi Calm Calm - N/A   Mostly Cloudy
7:48 PM 33.8 °F - 28.4 °F 81% 30.03 in 10.0 mi Calm Calm - N/A   Mostly Cloudy
7:53 PM 33.1 °F - 28.0 °F 82% 30.03 in 10.0 mi Calm Calm - N/A   Mostly Cloudy
8:02 PM 32.0 °F - 28.4 °F 87% 30.03 in 10.0 mi Calm Calm - N/A   Mostly Cloudy
8:13 PM 30.2 °F - 28.4 °F 93% 30.02 in 10.0 mi Calm Calm - N/A   Mostly Cloudy
8:22 PM 32.0 °F - 28.4 °F 87% 30.02 in 10.0 mi Calm Calm - N/A   Scattered Clouds
8:53 PM 30.0 °F - 28.0 °F 92% 30.02 in 10.0 mi Calm Calm - N/A   Partly Cloudy
9:46 PM 30.2 °F - 28.4 °F 93% 30.02 in 10.0 mi Calm Calm - N/A   Mostly Cloudy
9:53 PM 30.9 °F - 28.9 °F 92% 30.02 in 10.0 mi Calm Calm - N/A   Overcast
10:06 PM 30.2 °F 25.4 °F 28.4 °F 93% 30.02 in 10.0 mi North 4.6 mph - N/A   Mostly Cloudy
10:25 PM 30.2 °F - 28.4 °F 93% 30.01 in 10.0 mi Calm Calm - N/A   Overcast
10:53 PM 28.9 °F 25.2 °F 27.0 °F 92% 30.01 in 7.0 mi NE 3.5 mph - N/A   Overcast
11:24 PM 30.2 °F - 28.4 °F 93% 30.01 in 10.0 mi Calm Calm - N/A   Mostly Cloudy
11:53 PM 30.0 °F - 28.0 °F 92% 30.01 in 10.0 mi Calm Calm - N/A   Overcast